Volver al catálogo

TRAAC DEB

ActivoLEO
NORAD 10796·DEBRIS·🇺🇸 United States

Lanzado Nov 15, 1961 desde Cape Canaveral Space Force Station

Loading…

Próximos Pases (próximas 24 horas)

TLE

ActualizadoSource: Space-Track

Época: Sep 14, 2026, 15:45 UTC

1 10796U 61031D   26257.65642419  .00000044  00000-0  28688-4 0  9997
2 10796  32.4427  11.8428 0101440  19.6853 101.6337 13.63246272232456

Sigue TRAAC DEB en tiempo real con AllMySat

Download on the App Store